Weather History for KDFW - December, 2012

Change the Weather History Date:

Friday, December 28, 2012

  Actual Average Record
Temperature  
Mean Temperature 36 °F 46 °F  
Max Temperature 42 °F 56 °F 81 °F (1928)
Min Temperature 30 °F 36 °F 11 °F (1924)
Degree Days  
Heating Degree Days 29 20  
Month to date heating degree days 376 499  
Since 1 July heating degree days 664 853  
Cooling Degree Days 0 0  
Month to date cooling degree days 28 0  
Year to date cooling degree days 3351 2752  
Moisture  
Dew Point 33 °F    
Average Humidity 82    
Maximum Humidity 100    
Minimum Humidity 63    
Precipitation  
Precipitation 0.03 in 0.08 in 0.91 in (1937)
Month to date precipitation 1.76 2.34  
Year to date precipitation 31.07 35.93  
Snow  
Snow 0.00 in 0.00 in 1.50 in (1915)
Month to date snowfall 0.5 0.3  
Since 1 July snowfall 0.5 0.3  
Snow Depth 0.00 in    
Sea Level Pressure  
Sea Level Pressure 29.99 in    
Wind  
Wind Speed 13 mph (North)    
Max Wind Speed 24 mph    
Max Gust Speed 29 mph    
Visibility 4 miles    
Events Rain    
T = Trace of Precipitation, MM = Missing Value Source: NWS Daily Summary

Daily Weather History Graph

Daily Weather History Graph

Search for Another Location

Airport or City:

Trip Planner

Search our weather history database for the weather conditions in past years. The results will help you decide how hot, cold, wet, or windy it might be!

Date:

Astronomy

Dec. 28, 2012 Rise Set
Actual Time 7:29 AM CST 5:30 PM CST
Civil Twilight 7:02 AM CST 5:57 PM CST
Nautical Twilight 6:31 AM CST 6:28 PM CST
Astronomical Twilight 6:01 AM CST 6:58 PM CST
Moon 6:04 PM CST (12/28) 7:27 AM CST (12/28)
Length of Visible Light 10h 54m
Length of Day
10h 00m
Full, 100% of the Moon is Illuminated
Dec 28
Full
Jan 4
Last Quarter
Jan 11
New
Jan 18
First Quarter
Jan 26
Full

Hourly Weather History & Observations

Time (CST) Temp. Windchill Dew Point Humidity Pressure Visibility Wind Dir Wind Speed Gust Speed Precip Events Conditions
12:36 AM 42.8 °F 38.6 °F 39.2 °F 87% 29.88 in 1.2 mi NE 6.9 mph - N/A   Overcast
12:49 AM 42.8 °F 39.3 °F 39.2 °F 87% 29.87 in 0.8 mi NE 5.8 mph - N/A   Overcast
12:53 AM 42.1 °F 37.7 °F 39.9 °F 92% 29.88 in 0.8 mi NE 6.9 mph - N/A   Overcast
1:17 AM 41.0 °F 34.3 °F 39.2 °F 93% 29.88 in 1.0 mi NNE 11.5 mph - 0.00 in   Light Drizzle
1:41 AM 41.0 °F 36.4 °F 39.2 °F 93% 29.88 in 0.8 mi NE 6.9 mph - 0.01 in   Light Drizzle
1:53 AM 41.0 °F 37.1 °F 39.0 °F 93% 29.89 in 0.8 mi NNE 5.8 mph - 0.01 in   Light Drizzle
2:22 AM 39.2 °F 33.0 °F 37.4 °F 93% 29.88 in 1.2 mi NE 9.2 mph - 0.01 in   Light Drizzle
2:53 AM 39.9 °F 35.8 °F 37.9 °F 93% 29.90 in 1.2 mi NE 5.8 mph - 0.02 in   Light Drizzle
3:53 AM 39.9 °F 36.7 °F 39.0 °F 97% 29.89 in 1.2 mi NE 4.6 mph - 0.00 in   Light Drizzle
4:13 AM 39.2 °F 35.0 °F 37.4 °F 93% 29.88 in 2.0 mi NE 5.8 mph - 0.00 in   Light Drizzle
4:47 AM 39.2 °F 34.2 °F 37.4 °F 93% 29.88 in 3.0 mi NE 6.9 mph - 0.00 in   Light Drizzle
4:53 AM 39.2 °F 35.0 °F 37.4 °F 93% 29.88 in 3.0 mi NE 5.8 mph - N/A   Light Drizzle
5:42 AM 39.2 °F 34.2 °F 37.4 °F 93% 29.89 in 1.5 mi NNE 6.9 mph - 0.00 in   Light Drizzle
5:53 AM 39.0 °F 34.8 °F 37.0 °F 93% 29.89 in 1.5 mi NNE 5.8 mph - 0.00 in   Light Drizzle
6:26 AM 39.2 °F 32.5 °F 37.4 °F 93% 29.90 in 0.8 mi North 10.4 mph - 0.00 in   Light Drizzle
6:42 AM 39.2 °F 32.5 °F 37.4 °F 93% 29.89 in 1.2 mi North 10.4 mph - 0.00 in   Light Drizzle
6:53 AM 37.9 °F 31.5 °F 36.0 °F 93% 29.90 in 1.2 mi North 9.2 mph - 0.00 in   Light Drizzle
7:24 AM 37.4 °F 29.8 °F 35.6 °F 93% 29.92 in 1.0 mi NNW 11.5 mph - 0.00 in   Light Drizzle
7:53 AM 37.9 °F 29.6 °F 36.0 °F 93% 29.93 in 1.0 mi North 13.8 mph - 0.00 in   Light Drizzle
8:50 AM 37.4 °F 30.3 °F 35.6 °F 93% 29.95 in 1.0 mi North 10.4 mph - 0.00 in   Light Drizzle
8:53 AM 37.9 °F 30.9 °F 36.0 °F 93% 29.96 in 1.0 mi North 10.4 mph - 0.00 in   Light Drizzle
9:53 AM 39.0 °F 31.8 °F 37.0 °F 93% 29.98 in 1.0 mi North 11.5 mph - 0.00 in   Light Drizzle
10:00 AM 39.2 °F 32.0 °F 37.4 °F 93% 29.98 in 2.0 mi North 11.5 mph - 0.00 in   Light Drizzle
10:53 AM 39.0 °F 30.3 °F 36.0 °F 89% 30.00 in 2.0 mi NNW 16.1 mph - 0.00 in   Light Drizzle
11:53 AM 39.0 °F 29.9 °F 35.1 °F 86% 29.99 in 3.0 mi NNW 17.3 mph - 0.00 in   Overcast
12:53 PM 37.9 °F 27.6 °F 34.0 °F 86% 29.99 in 3.0 mi NNW 20.7 mph - N/A   Overcast
1:24 PM 39.2 °F 30.2 °F 35.6 °F 87% 29.99 in 6.0 mi NW 17.3 mph - N/A   Overcast
1:53 PM 39.9 °F 32.1 °F 34.0 °F 79% 29.98 in 7.0 mi NW 13.8 mph - N/A   Mostly Cloudy
2:40 PM 39.2 °F 29.8 °F 32.0 °F 75% 29.99 in 8.0 mi NNW 18.4 mph 26.5 mph N/A   Mostly Cloudy
2:53 PM 42.1 °F 32.8 °F 32.0 °F 67% 29.99 in 9.0 mi NW 21.9 mph 25.3 mph N/A   Mostly Cloudy
3:53 PM 39.9 °F 31.1 °F 28.9 °F 65% 30.01 in 10.0 mi NNW 17.3 mph - N/A   Overcast
4:53 PM 37.9 °F 27.6 °F 28.0 °F 68% 30.04 in 10.0 mi NW 20.7 mph - N/A   Overcast
5:53 PM 36.0 °F 26.0 °F 26.1 °F 67% 30.08 in 10.0 mi NW 17.3 mph - N/A   Overcast
6:53 PM 35.1 °F 24.8 °F 26.1 °F 70% 30.12 in 10.0 mi NW 17.3 mph - N/A   Overcast
7:47 PM 33.8 °F 23.5 °F 24.8 °F 70% 30.14 in 10.0 mi NNW 16.1 mph - N/A   Scattered Clouds
7:53 PM 34.0 °F 23.8 °F 25.0 °F 70% 30.15 in 10.0 mi NNW 16.1 mph - N/A   Partly Cloudy
8:53 PM 33.1 °F 23.4 °F 23.0 °F 66% 30.18 in 10.0 mi NNW 13.8 mph - N/A   Clear
9:53 PM 32.0 °F 24.2 °F 21.9 °F 66% 30.19 in 10.0 mi NW 9.2 mph - N/A   Clear
10:53 PM 30.9 °F 21.7 °F 19.9 °F 64% 30.22 in 10.0 mi NW 11.5 mph - N/A   Clear
11:53 PM 30.0 °F 21.7 °F 19.9 °F 66% 30.24 in 10.0 mi WNW 9.2 mph - N/A   Clear